Погода в Консепсион-де-ла-Вега

Доминиканская Республика     19°13′43″N   70°31′31″W
темп.,
°C
ветер,
м/с
пор.,
м/с
влажн.,
%
обл.,
%
осадки,
мм/ч
давл.,
гПа
погр.,
м
6 мая, чт
чт623:00+22юв388562 0.1 1019516
02:00+20вюв269818 0.2 1017157
05:00+19юв24977 0.0 101785
08:00+23вюв37751 0.0 1018550
11:00+30вюв56465 0.0 10171580
14:00+34вюв55275 0.0 10142423
17:00+31в774035 0.0 10141709
20:00+24в37679 0.0 1017322
7 мая, пт
пт723:00+21вюв268930 0.0 1018263
02:00+20юв26966 0.1 1016161
05:00+19юв22922 0.0 101641
08:00+23вюв36710 0.0 1017422
11:00+30вюв56440 0.0 10161538
14:00+35вюв55270 0.0 10122635
17:00+32в993886 0.0 10121739
20:00+25вюв58591 0.0 1015401
8 мая, сб
сб823:00+21вюв23800 0.0 101774
02:00+19вюв12945 0.0 101629
05:00+19вюв119630 0.0 101730
08:00+22вюв34788 0.0 1017380
11:00+31вюв55355 0.0 10161534
14:00+35вюв65225 0.0 10132533
17:00+32в98418 0.0 10131773
20:00+25в48675 0.1 1016368
9 мая, вс
вс923:00+21вюв23856 0.2 101858
02:00+20вюв248617 0.2 101883
05:00+19юв119277 0.0 101832
08:00+23вюв3574100 0.0 1019389
11:00+31вюв56440 0.0 10181460
14:00+35вюв56270 0.0 10152705
17:00+30в894714 0.1 10151421
20:00+22вюв378715 1.1 1018232
10 мая, пн
пн1023:00+21юв379521 0.4 1020262
02:00+20вюв269822 0.6 1018161
05:00+20вюв23976 0.0 101881
08:00+23вюв36845 0.0 1019404
11:00+30вюв675215 0.2 10181465
14:00+33в894032 0.4 10152203
17:00+25в477688 0.6 1016372
20:00+23вюв378350 1.1 1018256